| time (UTC) | temp C | wind direction | speed KPH | gust KPH | rain 1hr cm | rain 24hr cm | rain mn cm | humidity % | barometer mb |
| 20260503224501 | 20 | 242 | 6.4 | 22.5 | 0.00 | 0.00 | 0.00 | 40 | 1005.8 |
| 20260503223053 | 20 | 211 | 8.0 | 20.9 | 0.00 | 0.00 | 0.00 | 39 | 1006.0 |
| 20260503221551 | 20 | 213 | 3.2 | 12.9 | 0.00 | 0.00 | 0.00 | 41 | 1006.0 |
| 20260503220053 | 20 | 270 | 3.2 | 14.5 | 0.00 | 0.00 | 0.00 | 41 | 1006.0 |
| 20260503214556 | 20 | 196 | 4.8 | 9.7 | 0.00 | 0.00 | 0.00 | 42 | 1006.1 |
| 20260503213003 | 20 | 251 | 4.8 | 16.1 | 0.00 | 0.00 | 0.00 | 42 | 1006.1 |
| 20260503211508 | 19 | 176 | 6.4 | 17.7 | 0.00 | 0.00 | 0.00 | 43 | 1006.2 |
| 20260503210012 | 19 | 237 | 6.4 | 14.5 | 0.00 | 0.00 | 0.00 | 43 | 1006.5 |
| 20260503204517 | 18 | 202 | 6.4 | 16.1 | 0.00 | 0.00 | 0.00 | 44 | 1006.8 |
| 20260503203009 | 18 | 200 | 11.3 | 25.7 | 0.00 | 0.00 | 0.00 | 41 | 1007.0 |
| 20260503201553 | 18 | 267 | 6.4 | 20.9 | 0.00 | 0.00 | 0.00 | 44 | 1007.3 |
| 20260503200101 | 18 | 195 | 8.0 | 24.1 | 0.00 | 0.00 | 0.00 | 43 | 1007.4 |
| 20260503194602 | 18 | 234 | 8.0 | 25.7 | 0.00 | 0.00 | 0.00 | 43 | 1007.9 |
| 20260503193102 | 18 | 238 | 4.8 | 37.0 | 0.00 | 0.00 | 0.00 | 43 | 1008.0 |
| 20260503191606 | 17 | 197 | 6.4 | 35.4 | 0.00 | 0.00 | 0.00 | 45 | 1008.1 |
| 20260503184631 | 17 | 208 | 14.5 | 30.6 | 0.00 | 0.00 | 0.00 | 46 | 1008.5 |
| 20260503184504 | 17 | 204 | 12.9 | 30.6 | 0.00 | 0.00 | 0.00 | 45 | 1008.5 |
| 20260503183007 | 16 | 204 | 8.0 | 24.1 | 0.00 | 0.00 | 0.00 | 47 | 1008.5 |
| 20260503181512 | 16 | 194 | 8.0 | 24.1 | 0.00 | 0.00 | 0.00 | 46 | 1008.8 |
| 20260503180011 | 17 | 155 | 11.3 | 30.6 | 0.00 | 0.00 | 0.00 | 47 | 1008.9 |
| 20260503174544 | 16 | 185 | 8.0 | 25.7 | 0.00 | 0.00 | 0.00 | 47 | 1009.1 |
| 20260503173036 | 16 | 244 | 6.4 | 25.7 | 0.00 | 0.00 | 0.00 | 47 | 1009.3 |
| 20260503171535 | 15 | 200 | 9.7 | 22.5 | 0.00 | 0.00 | 0.00 | 49 | 1009.5 |
| 20260502233056 | 14 | 247 | 9.7 | 16.1 | 0.00 | 0.00 | 0.00 | 33 | 1016.8 |
| 20260502231519 | 13 | 257 | 6.4 | 24.1 | 0.00 | 0.00 | 0.00 | 33 | 1017.1 |
| 20260502230046 | 14 | 259 | 3.2 | 19.3 | 0.00 | 0.00 | 0.00 | 33 | 1017.2 |